Albany, NY

4:44 AM EST on November 20, 2017 (GMT -0500)
Albany International

Weather History for KALB - July, 2014

Change the Weather History Date:

Saturday, July 12, 2014

  Actual Average Record
Temperature  
Mean Temperature 73 °F 72 °F  
Max Temperature 87 °F 82 °F 96 °F (1935)
Min Temperature 58 °F 62 °F 44 °F (1978)
Degree Days  
Heating Degree Days 0 0  
Month to date heating degree days 0 0  
Since 1 June heating degree days 12 52  
Since 1 July heating degree days 0 0  
Cooling Degree Days 8 7  
Month to date cooling degree days 105 81  
Year to date cooling degree days 288 229  
Since 1 June cooling degree days 253 199  
Growing Degree Days 22 (Base 50)    
Moisture  
Dew Point 60 °F    
Average Humidity 69    
Maximum Humidity 93    
Minimum Humidity 44    
Precipitation  
Precipitation T in 0.13 in 2.32 in (1874)
Month to date precipitation 3.48 1.57  
Year to date precipitation 21.81 20.14  
Sea Level Pressure  
Sea Level Pressure 30.15 in    
Wind  
Wind Speed 7 mph (South)    
Max Wind Speed 18 mph    
Max Gust Speed 25 mph    
Visibility 10 miles    
Events Fog    
T = Trace of Precipitation, MM = Missing Value Source: NWS Daily Summary

Daily Weather History Graph

Daily Weather History Graph

Search for Another Location

Airport or City:

Trip Planner

Search our weather history database for the weather conditions in past years. The results will help you decide how hot, cold, wet, or windy it might be!

Date:

Astronomy

Jul. 12, 2014 Rise Set
Actual Time 5:28 AM EDT 8:33 PM EDT
Civil Twilight 4:53 AM EDT 9:07 PM EDT
Nautical Twilight 4:10 AM EDT 9:50 PM EDT
Astronomical Twilight 3:17 AM EDT 10:42 PM EDT
Moon 8:30 PM EDT (7/12) 5:46 AM EDT (7/12)
Length of Visible Light 16h 13m
Length of Day
15h 05m
Full, 100% of the Moon is Illuminated
Jul 12
Full
Jul 18
Last Quarter
Jul 26
New
Aug 3
First Quarter
Aug 10
Full

Hourly Weather History & Observations

Time (EDT) Temp. Heat Index Dew Point Humidity Pressure Visibility Wind Dir Wind Speed Gust Speed Precip Events Conditions
12:51 AM 62.1 °F - 55.9 °F 80% 30.22 in 10.0 mi Calm Calm - N/A   Clear
1:51 AM 61.0 °F - 55.9 °F 83% 30.22 in 10.0 mi Calm Calm - N/A   Clear
2:51 AM 59.0 °F - 55.0 °F 87% 30.21 in 10.0 mi Calm Calm - N/A   Partly Cloudy
3:51 AM 60.1 °F - 55.9 °F 86% 30.21 in 10.0 mi Calm Calm - N/A   Partly Cloudy
4:51 AM 59.0 °F - 55.9 °F 90% 30.21 in 10.0 mi Calm Calm - N/A Fog Patches of Fog
5:51 AM 57.9 °F - 55.0 °F 90% 30.22 in 10.0 mi Calm Calm - N/A Fog Patches of Fog
6:51 AM 62.1 °F - 57.0 °F 84% 30.22 in 10.0 mi Calm Calm - N/A   Scattered Clouds
7:51 AM 64.9 °F - 57.9 °F 78% 30.22 in 10.0 mi South 5.8 mph - N/A   Scattered Clouds
8:51 AM 70.0 °F - 60.1 °F 71% 30.21 in 10.0 mi South 5.8 mph - N/A   Scattered Clouds
9:51 AM 72.0 °F - 60.1 °F 66% 30.20 in 10.0 mi South 5.8 mph - N/A   Mostly Cloudy
10:51 AM 75.9 °F - 61.0 °F 60% 30.19 in 10.0 mi SSE 5.8 mph - N/A   Scattered Clouds
11:51 AM 80.1 °F 81.1 °F 61.0 °F 52% 30.17 in 10.0 mi South 6.9 mph - N/A   Scattered Clouds
12:51 PM 82.9 °F 84.4 °F 64.0 °F 53% 30.16 in 10.0 mi Variable 4.6 mph - N/A   Scattered Clouds
1:51 PM 84.9 °F 86.6 °F 64.9 °F 51% 30.14 in 10.0 mi SE 8.1 mph - N/A   Mostly Cloudy
2:51 PM 84.9 °F 85.9 °F 63.0 °F 48% 30.13 in 10.0 mi South 8.1 mph - N/A   Mostly Cloudy
3:51 PM 84.0 °F 84.0 °F 60.1 °F 44% 30.11 in 10.0 mi South 10.4 mph - N/A   Mostly Cloudy
4:51 PM 86.0 °F 86.8 °F 63.0 °F 46% 30.09 in 10.0 mi South 16.1 mph 21.9 mph 0.00 in   Scattered Clouds
5:51 PM 84.2 °F 85.0 °F 62.6 °F 48% 30.08 in 10.0 mi South 12.7 mph 20.7 mph N/A   Partly Cloudy
6:51 PM 82.9 °F 84.0 °F 63.0 °F 51% 30.08 in 10.0 mi South 9.2 mph - N/A   Scattered Clouds
7:51 PM 82.0 °F 83.1 °F 63.0 °F 52% 30.07 in 10.0 mi South 9.2 mph - N/A   Mostly Cloudy
8:51 PM 81.0 °F 82.5 °F 64.0 °F 56% 30.06 in 10.0 mi South 9.2 mph - N/A   Mostly Cloudy
9:51 PM 79.0 °F - 64.0 °F 60% 30.08 in 10.0 mi South 10.4 mph 19.6 mph N/A   Mostly Cloudy
10:51 PM 77.0 °F - 63.0 °F 62% 30.07 in 10.0 mi South 17.3 mph 25.3 mph N/A   Mostly Cloudy
11:51 PM 75.0 °F - 60.1 °F 60% 30.06 in 10.0 mi South 15.0 mph 23.0 mph N/A   Mostly Cloudy